Overview Statistics Trail Chart Weather Telemetry Raw packets
 

This is the latest recevied weather packets stored in our database for station/object ea1bqo-1. If no packets are shown the sender has not sent any weather packets the latest 10 day(s).

<< 9 10 11 12 13 14 15 >>
Time Temp. Humidity Pressure Rain* Wind** Luminosity Snow
1788469139 22.22° C 32% 1019.8 hPa 0 mm - - -
1788468599 22.22° C 31% 1019.7 hPa 0 mm - - -
1788468059 22.22° C 31% 1019.6 hPa 0 mm - - -
1788467519 22.22° C 31% 1019.6 hPa 0 mm - - -
1788466979 22.78° C 30% 1019.3 hPa 0 mm - - -
1788466439 22.78° C 30% 1019.1 hPa 0 mm - - -
1788465899 23.33° C 28% 1019 hPa 0 mm - - -
1788465359 23.33° C 27% 1018.9 hPa 0 mm - - -
1788464819 23.89° C 25% 1018.7 hPa 0 mm - - -
1788464279 24.44° C 24% 1018.8 hPa 0 mm - - -
1788463739 25.56° C 22% 1018.6 hPa 0 mm - - -
1788463199 26.11° C 20% 1018.4 hPa 0 mm - - -
1788462659 26.67° C 18% 1018.5 hPa 0 mm - - -
1788462119 27.22° C 16% 1018.3 hPa 0 mm - - -
1788461579 28.33° C 12% 1018.3 hPa 0 mm - - -
1788461039 29.44° C 10% 1018.3 hPa 0 mm - - -
1788460499 31.67° C 10% 1018.2 hPa 0 mm - - -
1788459959 33.33° C 10% 1018.1 hPa 0 mm - - -
1788459419 34.44° C 10% 1018.1 hPa 0 mm - - -
1788458879 34.44° C 10% 1018.2 hPa 0 mm - - -
1788458339 34.44° C 10% 1018.2 hPa 0 mm - - -
1788457799 35° C 10% 1018.1 hPa 0 mm - - -
1788457259 35° C 10% 1018.3 hPa 0 mm - - -
1788456719 35° C 10% 1018.3 hPa 0 mm - - -
1788456179 35° C 10% 1018.3 hPa 0 mm - - -

* Rain latest hour (hover to see other rain measurements)
** Current wind speed in m/s (hover to see current wind gust speed)